Wetbulb
48.30 49.35 51.60 53.71 52.74 63.64 68.08 69.20 69.45 69.55 69.40 68.33 67.52 67.75 66.72 66.37 66.98 67.02 67.51 67.26 67.74 67.26 66.31 67.35 66.64 66.08 65.56 64.56 64.88 64.44 63.98 62.05 62.12 60.62 59.26 58.52 58.94 59.40 59.98 60.31 60.63 61.26 60.82
46.93 48.77 49.09 49.65 52.22 57.58 66.86 68.24 69.16 69.55 69.99 69.87 69.18 68.54 68.82 67.59 67.60 67.74 67.55 68.23 68.12 67.83 67.34 66.99 67.32 67.25 66.52 65.87 65.15 64.42 62.16 62.04 62.24 59.42 57.56 57.86 57.67 57.04 57.86 57.87 58.47 58.10 57.71
47.21 48.02 48.90 48.43 49.59 52.77 63.64 67.36 68.22 69.25 70.01 69.96 69.67 66.85 66.38 65.75 65.81 65.78 67.02 67.61 68.79 68.33 67.88 67.38 67.73 67.26 66.95 65.70 64.91 63.98 62.42 61.01 60.77 59.94 59.64 55.84 55.62 54.16 55.26 55.86 56.06 56.30 56.20
45.95 48.20 48.50 48.21 48.05 52.46 59.28 66.69 67.49 68.27 69.67 69.17 68.51 68.06 67.21 66.01 67.22 67.50 67.40 67.49 68.76 68.78 68.42 67.78 67.53 67.44 66.74 65.18 64.86 64.34 63.02 61.73 60.29 59.25 58.19 57.38 56.22 54.34 53.35 52.86 52.68 53.19 54.75
46.10 46.82 47.61 49.51 49.64 56.29 58.18 60.40 64.04 66.69 67.93 68.77 68.88 68.20 67.49 67.70 65.93 65.55 65.82 66.32 67.52 68.67 68.45 67.91 67.73 67.29 66.43 65.17 64.61 64.11 62.95 61.79 60.97 59.79 59.28 57.28 55.03 54.72 55.24 55.68 54.88 51.35 52.65
45.17 45.66 50.59 58.66 59.67 60.50 61.17 61.58 61.96 62.34 63.24 67.52 67.64 67.91 67.53 65.53 64.89 64.60 65.95 64.66 66.22 66.60 67.28 67.65 67.39 67.27 66.78 65.42 65.11 64.56 63.79 63.59 61.01 60.02 58.89 57.39 56.42 55.43 55.23 54.57 54.90 52.67 52.89
46.05 53.18 59.06 60.38 60.77 60.21 60.49 61.44 61.78 60.63 59.71 60.63 65.11 66.89 67.64 66.25 66.47 65.78 66.47 65.10 65.26 64.76 64.44 65.27 64.88 64.88 65.95 65.27 64.69 64.76 64.51 63.24 62.37 61.39 60.65 59.63 58.46 57.38 56.20 55.22 53.63 52.80 51.59
51.28 56.29 59.65 60.97 60.64 60.13 60.19 60.63 61.50 61.89 62.42 61.19 61.10 64.03 65.82 66.69 66.45 65.91 65.21 65.28 65.61 65.77 65.13 65.13 65.11 64.20 64.52 64.11 63.89 63.43 62.97 63.15 62.11 60.94 60.22 59.54 59.07 57.93 56.68 55.32 53.25 49.14 48.48
54.15 57.41 60.48 61.02 60.97 60.11 59.44 60.09 60.40 60.72 61.88 61.72 61.94 62.49 63.05 63.25 63.07 62.99 63.61 63.84 63.98 63.97 64.65 64.32 64.13 63.70 63.65 63.45 62.77 62.09 61.23 61.39 60.50 60.32 60.14 59.22 58.47 58.11 57.22 56.16 54.75 53.77 50.50
55.90 57.15 60.32 60.85 60.31 59.62 59.14 59.19 59.75 60.23 60.72 61.10 61.32 61.42 61.96 61.88 61.65 61.47 61.18 62.82 62.43 63.07 63.68 63.68 63.61 62.91 62.73 62.37 61.62 60.64 60.46 59.88 59.01 58.29 58.47 57.59 57.34 57.14 57.04 56.12 54.51 53.37 52.32
56.75 57.61 60.46 60.83 60.23 59.00 58.93 58.49 59.05 59.41 60.36 60.62 60.58 60.48 60.84 60.58 60.52 60.16 60.04 61.06 61.62 62.69 62.73 62.69 62.50 62.10 61.58 60.94 59.84 58.95 59.17 58.57 57.10 56.06 56.08 54.36 54.91 54.55 54.99 54.43 53.87 52.66 51.80
54.31 58.68 60.32 59.51 59.16 59.14 58.55 58.29 57.89 58.77 59.45 61.12 61.88 62.25 61.91 61.73 61.37 61.00 60.80 61.42 62.35 62.58 62.24 61.88 61.54 61.02 59.93 59.11 57.94 56.72 56.68 55.88 54.02 54.10 53.81 53.19 53.54 51.99 51.98 52.02 51.30 51.48 50.86
50.73 58.56 59.10 59.45 59.22 58.85 58.61 57.91 57.79 58.21 59.95 61.89 61.82 61.39 61.37 61.34 60.78 60.40 60.56 61.00 60.88 60.90 61.16 60.49 59.57 58.56 57.50 56.24 55.22 54.17 52.57 52.54 52.74 52.06 52.17 51.06 50.93 49.50 49.40 50.80 50.55 50.71 49.97
50.95 58.72 58.96 58.95 59.19 59.12 59.30 59.36 58.41 58.41 59.17 60.33 60.98 60.72 60.58 60.39 60.03 60.37 59.83 59.71 59.55 58.72 57.84 57.64 56.30 55.50 54.80 53.75 52.61 52.48 50.79 49.46 49.31 48.86 49.08 49.10 48.78 48.48 48.32 48.37 48.54 48.08 47.49
50.07 56.98 58.24 58.19 58.31 58.16 58.28 58.74 58.76 58.44 59.34 60.88 60.43 59.79 59.19 58.44 58.26 57.20 56.52 56.12 55.82 55.09 54.83 53.82 53.62 53.15 52.14 51.42 49.94 49.05 47.86 47.31 47.34 47.76 47.97 47.86 47.49 45.94 45.21 45.86 44.48 45.55 44.94
52.00 57.15 58.55 58.36 58.10 58.11 58.16 57.66 57.70 58.38 59.09 60.16 59.53 58.47 57.38 56.58 55.60 55.11 54.23 54.04 53.30 53.10 52.78 50.81 50.18 48.26 48.39 42.25 43.68 45.83 46.50 46.66 46.21 45.56 44.86 44.96 44.77 43.13 41.32 40.87 40.35 41.96 42.76
50.86 53.44 57.80 58.45 58.46 57.82 57.65 57.06 57.20 58.15 58.77 58.37 57.77 56.94 56.40 55.15 53.96 53.77 53.45 52.15 51.09 49.55 48.22 47.81 47.68 46.50 45.55 41.05 41.11 41.39 44.46 43.97 43.28 42.29 41.70 41.53 41.85 39.70 38.77 38.54 38.27 37.88 37.56
50.81 52.24 52.20 56.71 58.65 58.57 57.72 57.27 57.59 57.87 57.83 56.72 56.00 55.21 54.28 53.56 53.25 51.99 49.75 48.40 47.00 46.05 45.25 45.31 45.26 44.34 42.55 40.18 39.36 39.06 42.49 42.18 40.95 39.06 39.31 39.41 38.59 38.11 37.74 37.36 36.61 36.14 35.96
49.36 50.62 53.72 55.27 56.92 57.78 57.35 56.71 57.06 57.05 56.06 55.01 53.94 53.43 52.77 50.84 50.18 47.91 45.76 45.64 45.31 43.79 43.06 42.65 42.38 41.54 38.34 38.30 37.76 39.74 38.93 35.59 35.27 34.36 34.35 34.17 34.53 36.58 38.93 34.71 34.36 33.99 33.97
50.14 50.15 50.56 53.22 55.05 57.17 57.14 56.20 55.59 54.77 54.30 53.79 52.29 51.59 50.07 48.38 45.97 44.93 43.53 43.29 43.76 43.23 43.11 42.48 42.20 41.10 41.43 39.98 39.44 39.54 34.35 34.73 34.17 33.26 33.62 35.92 34.50 35.93 36.26 33.99 33.43 33.43 33.43
49.19 50.85 53.35 53.94 55.06 55.92 56.43 54.70 53.14 52.96 49.00 46.81 45.92 45.56 45.67 44.48 43.90 43.18 43.37 43.07 42.14 41.74 40.65 40.11 40.44 40.28 39.04 37.79 38.65 38.02 35.55 34.32 32.88 32.88 32.90 33.06 35.33 36.07 37.15 37.06 33.25 33.58 33.79
52.26 53.42 53.52 52.45 53.12 54.40 54.85 52.11 50.03 43.58 44.55 45.02 44.10 43.49 43.77 43.05 42.91 42.02 41.73 41.35 40.52 38.19 35.44 35.24 34.89 35.25 35.25 35.77 36.92 37.06 36.15 35.30 33.59 32.88 33.06 33.05 35.59 36.23 35.67 35.04 34.96 34.83 33.41
51.42 51.70 51.31 50.04 48.17 50.63 50.79 45.31 42.09 43.01 43.86 43.55 42.55 42.01 41.74 41.62 41.66 40.37 39.83 38.98 39.64 38.01 36.62 34.70 33.97 34.35 35.62 35.95 36.03 36.17 35.26 35.11 33.25 32.72 33.55 34.51 33.76 33.19 32.56 34.22 34.33 33.22 32.70
50.36 47.08 44.77 42.94 41.17 42.94 43.56 41.67 41.98 43.31 43.46 41.40 40.71 40.58 39.93 39.62 39.95 39.62 39.49 37.98 36.97 35.34 34.44 33.89 35.20 36.63 33.11 32.16 34.03 33.25 34.15 31.60 32.26 32.37 32.45 29.12 28.85 31.79 32.04 31.79 30.67 33.28 33.34
42.37 42.77 41.81 40.51 39.56 40.70 41.14 42.35 43.16 43.13 40.87 40.46 40.10 39.29 39.31 38.97 38.63 38.50 38.25 37.59 38.45 37.50 36.37 36.91 35.64 32.79 31.92 32.38 33.44 32.83 29.99 28.56 28.89 23.39 21.82 25.97 28.99 30.59 31.17 31.38 32.28 33.08 32.57
40.25 39.43 39.58 39.26 39.31 40.38 41.01 41.56 42.29 41.89 40.60 39.04 38.52 38.08 37.77 37.61 37.22 36.51 34.43 35.46 36.44 35.12 35.50 34.91 34.51 32.31 32.85 33.28 34.36 34.64 34.48 34.10 32.59 28.36 28.96 30.21 30.74 30.16 29.89 30.24 30.81 31.88 32.06
MSLP
1003.87 1003.58 1003.53 1003.47 1004.54 1005.12 1005.47 1005.91 1006.69 1007.43 1008.72 1009.46 1010.14 1010.63 1010.88 1011.37 1011.74 1011.80 1011.93 1012.48 1012.91 1013.35 1013.97 1014.49 1015.06 1015.46 1015.88 1016.10 1016.51 1017.05 1017.48 1018.03 1018.23 1019.14 1019.71 1019.88 1019.94 1019.91 1020.04 1020.04 1019.98 1020.02 1020.11
1003.65 1003.40 1003.48 1003.62 1003.96 1004.21 1005.12 1005.47 1005.96 1006.76 1007.38 1008.09 1008.54 1009.39 1009.93 1010.77 1010.84 1011.16 1011.23 1011.49 1012.05 1012.51 1013.00 1013.66 1014.30 1014.74 1015.26 1015.65 1016.00 1016.35 1017.14 1017.58 1017.78 1018.74 1019.59 1020.01 1020.17 1019.90 1020.03 1020.19 1020.13 1020.15 1020.18
1003.37 1003.01 1003.22 1003.33 1003.57 1004.05 1004.39 1005.12 1005.26 1005.79 1006.46 1007.32 1008.44 1009.27 1009.97 1010.50 1010.91 1010.93 1011.04 1011.11 1011.27 1011.62 1012.08 1012.68 1013.39 1014.03 1014.51 1014.75 1015.35 1015.73 1016.29 1016.90 1017.59 1017.70 1018.48 1019.68 1019.84 1020.00 1019.78 1019.80 1020.01 1020.17 1020.27
1002.72 1002.50 1002.65 1002.92 1002.88 1003.36 1003.32 1004.49 1004.90 1005.42 1006.06 1006.87 1007.79 1008.36 1008.63 1009.21 1009.11 1009.59 1010.00 1010.36 1010.58 1011.03 1011.38 1011.84 1012.61 1013.30 1013.73 1014.23 1014.74 1015.12 1015.58 1016.26 1017.07 1017.90 1018.02 1018.30 1018.66 1019.52 1020.09 1019.97 1019.97 1020.07 1020.08
1001.99 1002.04 1002.02 1001.96 1002.40 1003.13 1003.41 1003.99 1004.76 1005.29 1005.77 1006.34 1006.92 1007.64 1008.11 1008.37 1008.64 1009.15 1009.58 1010.00 1010.28 1010.59 1010.79 1011.21 1011.96 1012.56 1013.12 1013.59 1013.95 1014.73 1015.14 1015.68 1016.39 1016.79 1017.62 1018.29 1018.69 1018.89 1019.37 1019.83 1019.99 1019.94 1019.77
1001.31 1001.53 1001.76 1002.04 1002.75 1003.51 1003.43 1003.84 1004.63 1005.28 1005.62 1006.01 1006.55 1007.02 1007.49 1007.95 1008.48 1008.93 1009.36 1009.71 1009.90 1010.18 1010.51 1010.87 1011.22 1011.83 1012.39 1012.94 1013.38 1013.95 1014.64 1015.28 1015.65 1016.09 1016.49 1017.01 1017.70 1018.31 1018.91 1019.42 1019.54 1019.84 1019.52
1001.30 1001.90 1001.78 1002.44 1003.24 1003.71 1004.09 1004.28 1004.83 1005.55 1005.73 1006.01 1006.41 1006.63 1007.01 1007.34 1007.70 1008.17 1008.73 1009.22 1009.63 1010.03 1010.31 1010.60 1011.16 1011.59 1011.95 1012.33 1012.90 1013.60 1014.20 1014.55 1014.82 1015.16 1015.88 1016.32 1016.75 1017.24 1018.00 1018.58 1019.22 1019.67 1019.78
1000.99 1001.48 1001.56 1002.15 1002.98 1003.48 1003.76 1004.14 1004.73 1005.36 1005.50 1005.73 1006.02 1006.32 1006.61 1006.99 1007.26 1007.57 1008.20 1008.59 1008.91 1009.24 1009.73 1010.26 1010.67 1010.98 1011.39 1012.14 1012.85 1013.36 1013.51 1013.95 1014.41 1015.19 1015.25 1015.44 1016.63 1016.58 1017.30 1017.97 1018.85 1019.45 1019.90
1000.68 1001.42 1001.44 1001.96 1002.61 1003.15 1003.58 1004.02 1004.66 1005.11 1004.98 1005.43 1005.79 1006.14 1006.44 1006.79 1007.13 1007.52 1007.87 1008.23 1008.45 1008.91 1009.33 1009.87 1010.23 1010.79 1011.36 1011.74 1012.51 1013.14 1013.53 1013.76 1014.31 1014.80 1015.07 1015.54 1016.08 1016.42 1017.29 1017.84 1018.13 1018.76 1019.51
1000.07 1000.79 1001.20 1001.90 1002.57 1003.03 1003.51 1004.18 1004.42 1004.30 1004.92 1005.46 1005.92 1006.27 1006.49 1006.78 1007.08 1007.53 1007.89 1008.14 1008.45 1008.89 1009.23 1009.59 1010.18 1010.63 1011.14 1011.77 1012.49 1012.96 1013.37 1013.96 1014.43 1014.79 1015.22 1015.50 1016.09 1016.62 1017.33 1017.73 1018.24 1018.51 1019.01
999.70 1000.04 1001.07 1001.60 1002.28 1003.12 1003.78 1003.96 1004.16 1004.45 1005.12 1005.71 1006.09 1006.39 1006.68 1006.94 1007.26 1007.58 1007.95 1008.11 1008.46 1008.87 1009.30 1009.62 1010.17 1010.49 1011.03 1011.60 1012.25 1012.92 1013.39 1014.06 1014.66 1015.01 1015.42 1015.97 1016.47 1016.86 1017.26 1017.69 1017.89 1018.26 1018.96
999.24 999.93 1000.66 1001.55 1002.41 1002.99 1003.41 1003.79 1004.00 1004.39 1004.98 1005.64 1006.01 1006.41 1006.72 1007.11 1007.39 1007.70 1008.01 1008.23 1008.45 1008.83 1009.21 1009.57 1010.07 1010.41 1010.87 1011.47 1012.09 1012.82 1013.68 1014.09 1014.66 1015.20 1015.68 1016.17 1016.66 1017.06 1017.34 1017.58 1017.85 1018.24 1018.50
1000.00 1000.25 1000.94 1001.56 1002.05 1002.54 1003.03 1003.30 1003.64 1004.15 1005.01 1005.41 1005.70 1006.21 1006.63 1006.99 1007.40 1007.80 1008.13 1008.43 1008.56 1008.96 1009.32 1009.69 1010.12 1010.60 1011.17 1011.71 1012.32 1013.07 1013.81 1014.36 1014.99 1015.44 1015.83 1016.55 1016.79 1017.22 1017.57 1017.81 1017.98 1018.04 1018.17
999.73 999.91 1000.56 1000.99 1001.41 1001.87 1002.46 1003.01 1003.38 1003.94 1004.70 1005.24 1005.61 1005.97 1006.42 1006.88 1007.29 1007.62 1007.95 1008.27 1008.55 1009.01 1009.39 1009.81 1010.28 1010.92 1011.64 1012.20 1012.90 1013.58 1014.32 1014.83 1015.31 1015.83 1016.24 1016.54 1016.91 1017.25 1017.35 1017.72 1017.69 1018.01 1018.20
998.41 999.42 999.69 1000.27 1000.87 1001.48 1002.11 1002.64 1003.06 1003.62 1004.20 1004.80 1005.41 1005.75 1006.17 1006.71 1007.23 1007.64 1007.99 1008.40 1008.71 1009.13 1009.56 1010.12 1010.78 1011.33 1011.90 1012.60 1013.34 1013.97 1014.61 1015.22 1015.69 1015.95 1016.24 1016.41 1016.54 1016.88 1017.53 1017.21 1017.71 1018.27 1018.32
997.39 997.95 998.67 999.30 1000.03 1000.46 1001.07 1001.82 1002.39 1003.04 1003.58 1004.17 1004.94 1005.56 1006.10 1006.75 1007.39 1007.92 1008.33 1008.66 1009.17 1009.63 1010.08 1010.71 1011.24 1011.99 1012.60 1013.12 1013.66 1014.21 1014.86 1015.34 1015.82 1016.26 1016.60 1016.91 1017.03 1017.09 1017.28 1016.92 1017.88 1018.05 1018.07
997.25 997.63 997.82 998.36 998.99 999.64 1000.13 1000.88 1001.52 1002.43 1003.11 1003.65 1004.50 1005.15 1006.04 1006.74 1007.52 1008.27 1008.86 1009.28 1009.75 1010.26 1010.79 1011.41 1011.90 1012.76 1013.42 1013.85 1014.39 1014.94 1015.48 1015.92 1016.40 1016.74 1017.02 1017.16 1017.49 1017.10 1017.30 1017.32 1017.54 1017.70 1017.84
996.28 996.52 997.51 998.24 998.39 999.02 999.65 1000.25 1001.08 1001.76 1002.50 1003.24 1004.13 1004.76 1005.75 1006.54 1007.40 1008.33 1009.26 1009.88 1010.40 1010.92 1011.51 1012.06 1012.67 1013.49 1014.32 1014.58 1015.08 1015.54 1015.96 1016.35 1016.64 1016.90 1017.25 1017.61 1017.66 1017.53 1017.39 1017.49 1017.49 1017.58 1017.78
995.06 995.47 995.74 996.42 997.40 998.25 999.10 999.98 1000.80 1001.45 1002.35 1003.11 1003.78 1004.36 1005.34 1006.27 1007.15 1008.36 1009.40 1009.94 1010.74 1011.50 1012.17 1012.76 1013.36 1014.09 1014.95 1015.25 1015.63 1015.97 1016.46 1016.73 1016.99 1017.53 1017.56 1017.50 1017.55 1017.37 1017.50 1017.26 1017.36 1017.43 1017.33
994.24 994.62 995.09 995.74 996.30 997.51 998.41 999.45 1000.24 1001.02 1001.79 1002.55 1003.46 1004.38 1005.41 1006.14 1007.04 1008.36 1009.68 1010.12 1010.91 1011.96 1012.58 1013.38 1013.87 1014.38 1014.82 1015.18 1015.58 1016.07 1016.62 1017.25 1017.21 1017.35 1017.48 1017.31 1017.33 1017.26 1017.09 1017.18 1017.24 1017.12 1017.08
994.25 994.28 995.00 995.41 995.56 996.28 997.23 998.91 999.96 1000.84 1001.53 1002.74 1003.63 1004.68 1005.90 1006.73 1007.56 1008.60 1009.84 1011.19 1011.43 1012.29 1013.16 1013.69 1014.04 1014.46 1014.87 1015.14 1015.45 1015.91 1016.74 1017.29 1017.40 1017.25 1017.12 1017.18 1017.07 1016.86 1016.66 1016.52 1016.61 1016.52 1016.54
994.03 994.04 994.54 995.14 995.95 996.42 997.28 998.69 1000.06 1001.25 1002.07 1003.14 1004.23 1005.37 1006.38 1007.26 1008.25 1009.07 1010.23 1010.97 1011.93 1012.66 1013.48 1014.24 1014.78 1014.75 1014.98 1015.27 1015.65 1015.96 1016.27 1016.46 1016.86 1016.74 1016.65 1016.66 1016.50 1016.38 1016.20 1015.98 1015.81 1015.74 1015.90
994.08 994.39 995.20 995.73 996.63 997.17 997.77 999.04 1000.60 1001.38 1002.54 1003.82 1004.96 1005.95 1006.82 1007.80 1008.66 1009.54 1010.46 1011.42 1012.33 1013.13 1013.64 1014.44 1014.94 1015.00 1015.04 1015.40 1015.63 1015.80 1015.98 1016.01 1016.30 1016.32 1016.27 1016.07 1016.03 1016.06 1015.78 1015.55 1015.54 1015.46 1015.41
994.14 994.40 995.64 996.81 997.71 998.30 999.13 1000.02 1001.02 1001.97 1002.95 1004.28 1005.49 1006.54 1007.45 1008.49 1009.33 1010.13 1010.99 1011.68 1012.47 1013.07 1013.50 1014.27 1015.03 1015.32 1015.33 1015.45 1015.36 1015.34 1015.44 1015.52 1015.64 1015.73 1015.64 1015.62 1015.57 1015.43 1015.30 1015.10 1014.91 1014.94 1014.77
994.74 995.42 996.18 997.19 998.25 998.96 1000.05 1000.84 1001.60 1002.49 1003.65 1004.82 1006.00 1007.25 1008.29 1009.06 1009.92 1010.66 1011.23 1011.94 1012.35 1012.81 1013.55 1014.13 1014.34 1014.54 1014.98 1014.96 1014.90 1015.00 1015.04 1015.01 1015.20 1015.30 1015.57 1015.56 1015.36 1015.12 1014.90 1014.63 1014.44 1014.34 1014.32
995.11 996.29 997.27 998.01 998.98 999.67 1000.54 1001.55 1002.50 1002.86 1003.87 1005.56 1006.91 1007.74 1008.62 1009.46 1010.25 1011.03 1011.62 1011.90 1012.31 1012.76 1013.09 1013.18 1013.62 1013.90 1014.01 1014.09 1014.21 1014.36 1014.50 1014.70 1014.75 1014.88 1015.07 1014.95 1014.86 1014.60 1014.27 1013.99 1013.83 1013.66 1013.58
Wind_Speed
11 10 9 10 9 7 15 19 19 19 14 12 12 10 12 11 9 10 14 14 14 15 13 9 8 10 10 11 12 9 9 4 4 4 2 0 1 1 0 2 1 2 2
8 9 10 9 9 14 15 17 19 17 16 13 13 10 10 7 10 9 11 14 15 15 13 13 10 12 8 10 12 11 4 4 5 4 2 1 2 2 3 2 3 3 1
14 12 10 11 8 10 14 16 18 19 18 15 9 3 4 3 4 6 9 11 15 16 16 14 12 10 9 10 9 10 7 5 3 4 5 3 5 0 1 2 3 4 3
10 13 11 10 11 11 11 13 15 16 15 14 12 15 11 11 11 9 9 10 13 14 15 14 12 11 8 8 8 7 6 5 5 1 2 3 4 4 2 1 2 3 4
11 15 13 15 5 9 9 9 9 11 10 14 14 13 11 9 3 3 7 8 9 12 14 14 13 12 9 8 9 8 7 4 4 4 3 1 1 1 2 3 2 1 4
9 10 4 8 8 6 7 9 10 8 8 11 11 15 14 8 6 5 7 5 6 6 9 12 12 11 10 10 9 8 8 10 5 5 5 5 4 4 3 3 3 4 3
5 7 11 12 11 10 9 8 9 7 8 8 9 11 12 11 13 11 9 8 6 5 8 9 8 7 8 7 7 9 9 8 8 10 7 3 4 4 3 3 2 3 2
7 11 13 14 12 10 9 9 9 7 7 8 8 7 9 8 8 9 7 7 7 7 8 9 9 9 7 5 5 3 4 5 4 6 6 4 4 4 4 4 4 2 2
11 13 13 14 13 11 10 11 9 8 7 6 6 6 6 6 6 6 5 4 5 6 9 9 9 7 7 8 7 5 5 5 4 5 4 3 3 3 3 3 3 3 3
9 10 13 13 8 8 7 8 7 8 7 5 4 4 4 5 5 5 6 7 5 6 7 8 8 8 9 9 7 5 5 6 3 3 4 3 2 3 3 3 2 2 2
15 13 12 11 10 8 7 7 7 8 6 5 4 4 4 5 5 5 5 6 6 7 7 7 8 10 9 8 7 5 6 6 5 3 4 5 4 3 3 3 3 3 3
11 12 12 10 11 10 9 9 7 8 7 6 7 5 5 5 5 5 5 6 7 7 8 8 8 9 9 9 9 9 5 6 6 5 5 4 3 3 3 3 4 2 2
6 7 9 12 12 10 9 8 8 8 7 7 7 7 6 6 6 6 6 5 7 6 7 8 8 8 8 8 6 6 5 6 6 5 5 5 4 1 1 1 2 2 2
11 14 12 12 12 12 12 12 9 9 8 7 8 8 7 7 6 7 7 7 7 8 7 7 7 7 7 7 7 7 6 6 5 5 4 5 4 4 4 5 4 2 3
13 14 16 14 13 12 11 11 11 11 11 10 8 7 6 6 6 6 6 6 7 7 8 9 8 8 8 5 7 7 7 7 6 5 5 5 6 6 5 3 1 3 3
15 18 18 16 16 16 15 12 12 13 12 12 10 9 8 8 6 6 7 8 8 8 9 8 9 7 5 12 12 8 6 6 5 4 2 2 1 0 1 1 5 6 4
8 9 16 17 15 16 16 17 16 13 14 13 12 11 11 11 9 8 7 8 8 7 7 7 8 7 6 9 10 10 5 5 3 1 2 3 3 1 1 2 4 6 8
10 10 9 10 14 14 14 12 14 15 14 14 13 13 13 13 11 11 8 6 5 7 6 6 7 7 5 11 10 8 5 4 2 2 3 4 5 4 4 4 4 5 6
11 12 14 16 15 17 15 14 14 14 14 15 14 15 14 14 13 11 8 6 7 6 6 6 8 9 5 8 8 5 4 3 2 3 4 3 5 6 9 4 5 5 5
8 10 9 10 14 14 15 16 16 16 16 15 14 13 13 13 13 12 9 4 9 8 7 7 6 7 4 4 3 3 2 2 3 2 4 7 7 8 7 5 5 6 3
10 7 9 14 17 16 19 17 15 16 10 11 12 12 10 12 13 12 10 8 9 8 6 6 5 4 1 3 4 4 2 4 3 3 3 4 9 9 9 8 5 6 5
7 10 12 10 10 14 17 15 14 11 13 14 14 14 13 11 10 13 9 9 7 7 5 2 2 2 2 6 7 8 10 7 5 4 3 4 5 7 10 7 8 12 7
8 5 9 11 7 8 12 16 13 15 15 15 14 14 13 11 10 10 9 7 5 4 4 3 2 2 3 4 9 12 11 8 3 2 4 4 5 10 8 10 10 7 3
9 11 14 12 10 9 11 14 15 15 16 17 15 12 11 10 9 6 5 5 4 3 3 2 3 6 3 3 2 1 3 5 3 3 3 3 4 6 8 9 5 6 5
9 9 11 11 12 13 14 13 15 15 16 14 12 11 9 8 7 5 5 4 3 4 4 7 6 4 4 4 6 6 3 2 4 2 1 1 2 4 4 5 5 5 5
12 12 12 14 14 14 15 14 13 15 16 13 9 8 7 5 5 4 2 2 5 6 8 7 5 3 6 5 5 6 7 9 8 1 3 5 6 6 6 8 7 5 7
Wind_Direction
229 224 218 204 167 181 183 183 179 186 175 183 187 188 194 197 198 198 193 188 194 198 200 200 186 187 197 198 198 196 190 199 145 108 58 57 308 238 148 22 56 95 78
261 248 228 220 190 176 191 187 187 179 183 186 191 199 192 199 204 202 195 191 193 197 197 200 197 200 193 197 197 186 153 173 163 144 114 213 293 245 226 220 214 217 205
233 241 233 221 202 179 179 192 183 183 186 183 174 106 97 105 159 198 201 195 195 197 200 199 197 198 198 202 197 185 183 168 176 176 145 150 223 165 205 223 238 248 255
240 237 223 223 202 207 176 187 179 178 183 171 174 186 195 196 209 193 200 196 194 196 198 195 197 196 198 190 186 185 176 154 168 138 95 61 139 177 277 277 246 251 255
238 237 213 212 188 156 155 153 159 167 171 179 185 190 203 209 157 167 178 191 193 199 195 192 190 197 192 188 175 179 178 186 167 174 147 185 102 27 147 234 243 287 234
249 232 175 127 123 127 125 128 140 162 168 181 188 194 201 181 163 178 195 189 193 188 200 194 193 200 189 182 188 176 184 194 180 175 172 171 164 181 166 206 239 229 267
239 176 149 144 148 154 149 135 149 157 178 181 191 197 201 183 189 186 196 186 179 185 192 177 184 178 177 164 167 188 197 190 190 177 182 174 160 139 146 142 209 245 320
210 184 171 157 155 155 147 136 142 146 158 172 192 190 185 193 193 183 180 188 187 186 178 186 180 174 152 151 166 178 153 170 167 167 177 171 184 153 167 160 153 225 248
203 188 163 162 157 157 162 157 154 156 123 134 143 150 160 163 163 159 160 170 161 170 171 171 161 162 155 155 171 170 161 142 142 155 175 151 168 136 162 162 161 164 247
176 170 159 159 160 156 150 155 158 136 139 133 140 151 152 152 150 152 162 168 152 158 164 158 164 163 163 161 157 156 150 145 171 143 164 105 106 144 159 163 166 166 200
184 165 164 163 155 144 153 145 139 131 134 155 158 163 165 155 149 152 158 161 151 159 167 163 166 164 156 149 139 141 146 157 151 143 155 149 140 146 145 152 170 187 196
176 167 163 151 155 159 156 160 146 139 143 157 168 160 150 152 151 152 160 159 160 162 166 164 162 153 143 146 147 140 161 159 146 139 134 154 147 163 189 194 205 219 208
195 152 151 169 170 165 164 157 154 144 159 159 148 149 160 160 163 155 148 150 139 151 153 148 145 136 135 127 120 137 137 124 134 144 137 151 145 161 6 260 239 216 208
201 186 175 181 178 173 169 170 163 157 161 163 164 163 162 160 159 154 151 150 146 139 129 120 112 113 115 114 119 123 130 127 119 121 132 138 153 192 194 209 215 239 221
197 192 184 185 181 172 173 175 172 168 165 168 167 164 137 131 135 132 130 123 122 119 120 116 118 122 126 133 129 120 123 133 144 157 167 188 191 189 206 145 252 252 241
196 195 198 185 182 182 182 174 172 179 169 168 168 151 142 136 131 126 123 122 114 125 123 123 123 109 96 113 116 126 137 144 149 162 206 245 245 312 311 74 248 236 225
226 209 196 191 188 187 178 182 179 168 176 167 164 152 148 138 129 124 126 126 124 115 108 108 108 110 116 123 112 99 98 109 114 165 259 310 276 324 214 232 273 274 248
212 199 187 210 203 194 186 168 169 173 172 165 162 152 152 145 139 134 126 113 112 112 110 109 102 90 73 95 99 95 105 117 126 351 303 267 277 250 239 244 241 244 251
213 206 196 198 188 184 179 167 167 166 165 167 165 157 155 146 138 131 128 119 111 100 93 98 102 105 111 120 123 107 75 58 360 260 240 231 263 256 245 236 248 255 255
213 217 203 183 174 178 168 164 167 166 172 169 161 149 147 142 130 125 119 112 108 99 94 85 80 88 93 72 85 107 118 215 223 240 262 259 247 256 252 228 228 255 249
236 213 169 180 186 167 161 167 161 171 146 131 125 121 122 120 121 111 106 95 95 95 81 82 69 68 30 308 277 246 224 232 214 216 214 237 245 248 251 232 213 223 193
195 184 168 155 156 159 155 152 150 130 124 123 119 118 121 118 118 114 108 108 101 92 85 78 308 316 278 253 276 243 221 206 209 212 218 229 245 293 294 288 241 238 231
150 125 134 119 105 131 145 134 136 130 126 122 120 118 113 110 109 110 110 109 118 143 150 156 209 318 324 276 244 229 229 222 207 212 236 260 302 300 294 282 294 268 222
148 138 127 121 109 103 108 119 127 129 127 121 119 115 109 110 108 108 114 129 137 138 112 126 255 247 230 216 221 198 167 153 172 235 270 259 270 276 283 288 277 273 234
121 115 117 117 112 114 118 127 131 133 121 116 115 112 115 117 117 116 137 146 165 153 193 219 211 180 216 230 205 191 207 222 234 236 336 298 234 269 267 261 242 247 246
125 116 117 119 120 117 120 124 127 123 119 115 116 117 119 116 118 130 90 78 185 197 211 191 173 226 222 217 247 258 266 271 265 235 257 267 265 262 263 278 271 230 240